APSTAR-6D

Last updated on Fri Jul 11 2025 00:02:45 GMT+0000 (Coordinated Universal Time)

1 45863U 20045A 25191.44556240 -.00000305 00000+0 00000+0 0 9992 2 45863 0.0365 77.8540 0001981 37.3914 107.8119 1.00269336 18432
UTC large
Height (km)
Speed (km/s)
/
Latitude / Longitude
Inclination (degrees)
Orbital Period (minutes)
Azimuth
Elevation
Range (km)
Doppler Factor

Next 0 passes for location: London (51.5072 / 0.1276)

Sorry there are no passes over London.